CW2285 Weather Reports


Display with metric or nautical units.
time (UTC)temp
F
wind
direction
speed
MPH
gust
MPH
rain 1hr
in
rain 24hr
in
rain mn
in
humidity
%
barometer
mb
20260506213003 88 38 3.0 6.0 0.00 0.00 0.00 20 1011.4
20260506212503 87 40 3.0 10.0 0.00 0.00 0.00 21 1011.4
20260506211503 87 55 2.0 5.0 0.00 0.00 0.00 22 1011.5
20260506211003 86 94 4.0 9.0 0.00 0.00 0.00 21 1011.7
20260506210503 85 134 3.0 5.0 0.00 0.00 0.00 24 1011.8
20260506210003 85 63 2.0 7.0 0.00 0.00 0.00 23 1011.9
20260506205504 85 84 6.0 9.0 0.00 0.00 0.00 22 1011.9
20260506205003 86 81 5.0 9.0 0.00 0.00 0.00 23 1011.9
20260506204503 86 127 3.0 9.0 0.00 0.00 0.00 22 1012.0
20260506204003 86 82 5.0 9.0 0.00 0.00 0.00 22 1012.0
20260506203004 85 112 6.0 8.0 0.00 0.00 0.00 25 1012.2
20260506202503 84 66 3.0 8.0 0.00 0.00 0.00 23 1012.3
20260506202003 85 107 3.0 8.0 0.00 0.00 0.00 23 1012.4
20260506201502 83 277 1.0 5.0 0.00 0.00 0.00 26 1012.4
20260506201003 84 205 3.0 6.0 0.00 0.00 0.00 25 1012.5
20260506200503 83 141 3.0 7.0 0.00 0.00 0.00 25 1012.5
20260506200003 84 122 3.0 8.0 0.00 0.00 0.00 25 1012.5
20260506195503 83 164 3.0 8.0 0.00 0.00 0.00 25 1012.6
20260506195004 84 127 2.0 7.0 0.00 0.00 0.00 24 1012.8
20260506194503 83 21 3.0 5.0 0.00 0.00 0.00 26 1012.9
20260506194003 83 109 2.0 3.0 0.00 0.00 0.00 25 1013.0
20260506193503 83 119 2.0 6.0 0.00 0.00 0.00 25 1013.0
20260506193004 83 94 3.0 7.0 0.00 0.00 0.00 25 1013.0
20260506192503 82 47 2.0 5.0 0.00 0.00 0.00 27 1013.1
20260506192003 82 117 3.0 7.0 0.00 0.00 0.00 26 1013.2
20260506191503 82 164 3.0 7.0 0.00 0.00 0.00 27 1013.2
20260506191003 81 116 3.0 7.0 0.00 0.00 0.00 26 1013.2
20260506190503 80 286 2.0 3.0 0.00 0.00 0.00 30 1013.4
20260506190004 80 279 1.0 6.0 0.00 0.00 0.00 27 1013.5
20260506185003 80 230 2.0 3.0 0.00 0.00 0.00 28 1013.5
20260506184503 80 166 2.0 5.0 0.00 0.00 0.00 28 1013.5
20260506184003 80 208 5.0 7.0 0.00 0.00 0.00 28 1013.6
20260506183503 79 73 2.0 5.0 0.00 0.00 0.00 28 1013.8
20260506182503 80 267 2.0 3.0 0.00 0.00 0.00 29 1013.9
20260506182003 79 101 1.0 5.0 0.00 0.00 0.00 30 1014.0
20260506181003 79 292 1.0 3.0 0.00 0.00 0.00 32 1014.0
20260506180503 78 325 1.0 5.0 0.00 0.00 0.00 29 1014.0
20260506180005 78 287 2.0 5.0 0.00 0.00 0.00 32 1014.0
20260506175003 78 221 5.0 8.0 0.00 0.00 0.00 29 1014.0
20260506174503 77 269 2.0 6.0 0.00 0.00 0.00 32 1014.0
20260506174004 77 260 3.0 9.0 0.00 0.00 0.00 30 1014.0
20260506173503 77 224 3.0 9.0 0.00 0.00 0.00 32 1014.0
20260506173003 77 268 4.0 8.0 0.00 0.00 0.00 31 1014.0
20260506172003 77 273 2.0 6.0 0.00 0.00 0.00 33 1014.0
20260506171503 76 289 6.0 10.0 0.00 0.00 0.00 34 1014.0
20260506171003 75 273 1.0 3.0 0.00 0.00 0.00 34 1014.0
20260506170502 76 297 1.0 5.0 0.00 0.00 0.00 35 1014.0
20260506170003 74 294 2.0 3.0 0.00 0.00 0.00 35 1014.0
20260506165503 74 268 0.0 5.0 0.00 0.00 0.00 35 1014.0
20260506165003 74 281 3.0 5.0 0.00 0.00 0.00 35 1014.0
20260506164504 73 247 2.0 5.0 0.00 0.00 0.00 36 1014.0
20260506164004 73 314 1.0 7.0 0.00 0.00 0.00 36 1014.1
20260506163503 73 349 1.0 6.0 0.00 0.00 0.00 37 1014.0
20260506163003 73 263 2.0 7.0 0.00 0.00 0.00 37 1014.0
20260506162503 72 297 3.0 9.0 0.00 0.00 0.00 37 1014.0
20260506161503 72 244 4.0 9.0 0.00 0.00 0.00 38 1014.0
20260506161003 71 286 3.0 9.0 0.00 0.00 0.00 40 1014.0
20260506160503 71 269 5.0 12.0 0.00 0.00 0.00 38 1014.0
20260506160003 71 291 5.0 12.0 0.00 0.00 0.00 38 1013.9
20260506155503 70 296 6.0 12.0 0.00 0.00 0.00 39 1013.8
20260506155003 70 303 7.0 12.0 0.00 0.00 0.00 39 1013.8
20260506154504 70 292 7.0 12.0 0.00 0.00 0.00 40 1013.8
20260506154003 69 279 7.0 13.0 0.00 0.00 0.00 41 1013.8
20260506153503 69 285 6.0 12.0 0.00 0.00 0.00 41 1013.9
20260506153004 68 279 7.0 14.0 0.00 0.00 0.00 42 1013.8
20260506152503 68 268 8.0 16.0 0.00 0.00 0.00 42 1013.8
20260506152003 67 299 10.0 18.0 0.00 0.00 0.00 42 1013.7
20260506151503 67 281 7.0 15.0 0.00 0.00 0.00 43 1013.8
20260506151003 67 283 10.0 18.0 0.00 0.00 0.00 43 1013.7
20260506150003 66 274 8.0 20.0 0.00 0.00 0.00 45 1013.7
20260506145503 66 279 9.0 15.0 0.00 0.00 0.00 46 1013.7
20260506145004 65 296 9.0 16.0 0.00 0.00 0.00 46 1013.8
20260506144504 65 300 7.0 17.0 0.00 0.00 0.00 46 1013.7
20260506144003 65 273 7.0 13.0 0.00 0.00 0.00 47 1013.7
20260506143503 64 282 10.0 18.0 0.00 0.00 0.00 47 1013.6
20260506143003 64 289 9.0 17.0 0.00 0.00 0.00 48 1013.6
20260506142503 64 276 9.0 18.0 0.00 0.00 0.00 48 1013.6
20260506142003 63 276 8.0 20.0 0.00 0.00 0.00 49 1013.5
20260506141503 63 290 11.0 20.0 0.00 0.00 0.00 48 1013.5
20260506141003 63 294 9.0 18.0 0.00 0.00 0.00 48 1013.5
20260506140503 63 284 10.0 21.0 0.00 0.00 0.00 49 1013.5
20260506135003 62 285 11.0 20.0 0.00 0.00 0.00 50 1013.2
20260506134503 62 284 9.0 20.0 0.00 0.00 0.00 50 1013.1
20260506134003 62 300 11.0 21.0 0.00 0.00 0.00 50 1013.0
20260506133503 62 287 9.0 20.0 0.00 0.00 0.00 51 1013.0
20260506133004 62 267 11.0 22.0 0.00 0.00 0.00 51 1013.0
20260506132503 62 277 10.0 20.0 0.00 0.00 0.00 51 1013.0
20260506132004 62 271 9.0 21.0 0.00 0.00 0.00 51 1013.0
20260506131503 62 286 11.0 20.0 0.00 0.00 0.00 52 1012.9
20260506131004 62 291 9.0 17.0 0.00 0.00 0.00 52 1012.7
20260506130503 62 292 10.0 20.0 0.00 0.00 0.00 52 1012.6
20260506130004 62 282 12.0 22.0 0.00 0.00 0.00 51 1012.5
20260506125503 62 289 12.0 23.0 0.00 0.00 0.00 51 1012.5
20260506125003 62 295 10.0 21.0 0.00 0.00 0.00 52 1012.5
20260506124004 62 291 10.0 21.0 0.00 0.00 0.00 52 1012.5
20260506123503 62 290 10.0 17.0 0.00 0.00 0.00 52 1012.4
20260506123003 62 289 11.0 18.0 0.00 0.00 0.00 53 1012.4
20260506122503 62 291 10.0 20.0 0.00 0.00 0.00 53 1012.4
20260506122003 62 291 10.0 17.0 0.00 0.00 0.00 53 1012.4
20260506121504 62 297 9.0 21.0 0.00 0.00 0.00 53 1012.4
20260506120504 62 301 12.0 18.0 0.00 0.00 0.00 53 1012.3
20260506120003 62 292 11.0 22.0 0.00 0.00 0.00 53 1012.1
20260506115503 62 287 14.0 22.0 0.00 0.00 0.00 53 1012.1
20260506115003 62 279 13.0 21.0 0.00 0.00 0.00 53 1012.1
20260506114503 62 288 13.0 22.0 0.00 0.00 0.00 53 1012.1
20260506114004 62 289 13.0 22.0 0.00 0.00 0.00 53 1012.0
20260506113504 62 283 13.0 22.0 0.00 0.00 0.00 53 1012.0
20260506113003 62 295 12.0 22.0 0.00 0.00 0.00 53 1012.0
20260506112503 62 287 13.0 23.0 0.00 0.00 0.00 53 1012.0
20260506112003 62 285 11.0 23.0 0.00 0.00 0.00 53 1012.0
20260506111502 62 274 12.0 23.0 0.00 0.00 0.00 53 1012.0
20260506110504 62 290 14.0 26.0 0.00 0.00 0.00 53 1011.9
20260506110004 62 296 12.0 20.0 0.00 0.00 0.00 53 1012.0
20260506105503 62 292 10.0 26.0 0.00 0.00 0.00 53 1012.0
20260506105003 62 288 9.0 26.0 0.00 0.00 0.00 53 1012.0
20260506104503 62 303 10.0 18.0 0.00 0.00 0.00 53 1012.0
20260506104003 62 290 11.0 23.0 0.00 0.00 0.00 53 1012.0
20260506103503 62 298 10.0 21.0 0.00 0.00 0.00 53 1012.0
20260506102503 62 297 7.0 20.0 0.00 0.00 0.00 54 1012.0
20260506102004 62 295 8.0 20.0 0.00 0.00 0.00 53 1012.0
20260506101503 62 295 10.0 21.0 0.00 0.00 0.00 53 1012.0
20260506101003 62 292 11.0 20.0 0.00 0.00 0.00 54 1011.9
20260506095503 62 290 11.0 20.0 0.00 0.00 0.00 53 1011.9
20260506095003 62 306 11.0 22.0 0.00 0.00 0.00 53 1011.9
20260506094503 62 291 12.0 23.0 0.00 0.00 0.00 53 1011.8
20260506093503 62 298 9.0 17.0 0.00 0.00 0.00 53 1011.9
20260506092503 63 299 12.0 21.0 0.00 0.00 0.00 53 1012.0
20260506092003 63 300 12.0 22.0 0.00 0.00 0.00 53 1012.0
20260506091503 63 297 12.0 22.0 0.00 0.00 0.00 53 1012.0
20260506091003 63 283 12.0 20.0 0.00 0.00 0.00 53 1012.0
20260506090503 63 295 10.0 22.0 0.00 0.00 0.00 53 1012.0
20260506090003 63 305 12.0 20.0 0.00 0.00 0.00 53 1012.0
20260506085503 63 285 12.0 21.0 0.00 0.00 0.00 52 1012.0
20260506084503 63 293 12.0 20.0 0.00 0.00 0.00 52 1012.0
20260506083504 63 293 10.0 23.0 0.00 0.00 0.00 51 1012.1
20260506083003 63 303 11.0 20.0 0.00 0.00 0.00 51 1012.1
20260506082503 64 300 10.0 21.0 0.00 0.00 0.00 50 1012.0
20260506082003 64 299 11.0 21.0 0.00 0.00 0.00 50 1012.1
20260506081503 64 304 7.0 17.0 0.00 0.00 0.00 50 1012.1
20260506080504 64 294 8.0 16.0 0.00 0.00 0.00 49 1012.2
20260506073503 64 285 8.0 16.0 0.00 0.00 0.00 49 1012.1
20260506072504 64 284 10.0 24.0 0.00 0.00 0.00 49 1012.0
20260506071503 64 302 12.0 20.0 0.00 0.00 0.00 48 1012.0
20260506071004 64 283 10.0 20.0 0.00 0.00 0.00 48 1012.0
20260506070504 64 296 14.0 22.0 0.00 0.00 0.00 48 1011.9
20260506062003 65 285 14.0 26.0 0.00 0.00 0.00 47 1011.4
20260506061503 65 292 12.0 24.0 0.00 0.00 0.00 47 1011.4
20260506060504 65 292 12.0 23.0 0.00 0.00 0.00 47 1011.1
20260506050503 66 297 12.0 24.0 0.00 0.00 0.00 45 1010.5
20260506045004 66 285 13.0 23.0 0.00 0.00 0.00 45 1010.4
20260506044503 66 286 14.0 22.0 0.00 0.00 0.00 45 1010.4
20260506043503 66 292 10.0 23.0 0.00 0.00 0.00 45 1010.2
20260506043004 66 288 10.0 20.0 0.00 0.00 0.00 45 1010.2
20260506042503 66 296 10.0 21.0 0.00 0.00 0.00 45 1010.2
20260506041503 66 276 13.0 22.0 0.00 0.00 0.00 44 1010.1
20260506041004 66 320 12.0 24.0 0.00 0.00 0.00 44 1009.9
20260506040504 67 305 12.0 25.0 0.00 0.00 0.00 44 1009.9
20260506040003 67 276 16.0 26.0 0.00 0.00 0.00 44 1009.8
20260506035503 67 297 11.0 23.0 0.00 0.00 0.00 44 1009.8
20260506035003 67 293 10.0 22.0 0.00 0.00 0.00 45 1009.7
20260506034503 67 315 10.0 22.0 0.00 0.00 0.00 44 1009.5
20260506034003 67 308 11.0 22.0 0.00 0.00 0.00 45 1009.5
20260506033003 67 293 11.0 28.0 0.00 0.00 0.00 45 1009.4
20260506031503 67 295 13.0 28.0 0.00 0.00 0.00 44 1009.3
20260506031003 67 303 14.0 26.0 0.00 0.00 0.00 44 1009.2
20260506030503 68 294 13.0 22.0 0.00 0.00 0.00 44 1009.1
20260506030003 68 289 14.0 22.0 0.00 0.00 0.00 43 1008.9
20260506025503 68 290 10.0 25.0 0.00 0.00 0.00 43 1008.8
20260506025003 68 297 14.0 22.0 0.00 0.00 0.00 43 1008.8
20260506023003 69 282 13.0 29.0 0.00 0.00 0.00 42 1008.4
20260506022503 69 293 16.0 25.0 0.00 0.00 0.00 41 1008.3
20260506022003 69 301 13.0 26.0 0.00 0.00 0.00 41 1008.3
20260506021503 70 297 14.0 23.0 0.00 0.00 0.00 41 1008.3
20260506021004 70 291 14.0 26.0 0.00 0.00 0.00 40 1008.3
20260506020503 70 295 14.0 26.0 0.00 0.00 0.00 40 1008.3
20260506015504 71 292 16.0 24.0 0.00 0.00 0.00 39 1008.1
20260506015003 71 296 14.0 26.0 0.00 0.00 0.00 39 1008.0
20260506014503 72 298 12.0 24.0 0.00 0.00 0.00 38 1007.9
20260506014004 72 279 15.0 23.0 0.00 0.00 0.00 37 1007.8
20260506013503 72 299 12.0 26.0 0.00 0.00 0.00 37 1007.8
20260506013003 73 292 14.0 23.0 0.00 0.00 0.00 36 1007.8
20260506012504 73 298 16.0 30.0 0.00 0.00 0.00 35 1007.8
20260506012004 73 297 10.0 20.0 0.00 0.00 0.00 35 1007.8
20260506011503 73 284 18.0 29.0 0.00 0.00 0.00 35 1007.8
20260506011004 74 305 14.0 25.0 0.00 0.00 0.00 34 1007.8
20260506010503 74 291 14.0 26.0 0.00 0.00 0.00 34 1007.8
20260506010003 74 294 13.0 25.0 0.00 0.00 0.00 34 1007.7
20260506005503 74 295 13.0 25.0 0.00 0.00 0.00 33 1007.8
20260506005003 74 303 15.0 25.0 0.00 0.00 0.00 32 1007.8
20260506004504 74 278 17.0 24.0 0.00 0.00 0.00 32 1007.7
20260506004004 75 287 17.0 28.0 0.00 0.00 0.00 32 1007.7
20260506003003 75 280 12.0 22.0 0.00 0.00 0.00 31 1007.7
20260506002503 75 289 16.0 25.0 0.00 0.00 0.00 31 1007.7
20260506002003 76 281 16.0 25.0 0.00 0.00 0.00 30 1007.7
20260506001504 76 289 11.0 22.0 0.00 0.00 0.00 30 1007.7
20260506001003 76 286 16.0 26.0 0.00 0.00 0.00 30 1007.7
20260506000004 77 285 14.0 25.0 0.00 0.00 0.00 28 1007.7
20260505235504 77 295 13.0 22.0 0.00 0.00 0.00 27 1007.7
20260505235004 77 291 9.0 22.0 0.00 0.00 0.00 27 1007.7
20260505234503 78 284 10.0 17.0 0.00 0.00 0.00 24 1007.7
20260505234004 77 282 12.0 20.0 0.00 0.00 0.00 26 1007.7
20260505233503 78 284 12.0 20.0 0.00 0.00 0.00 25 1007.7
20260505233004 77 284 14.0 23.0 0.00 0.00 0.00 25 1007.7
20260505232503 78 277 12.0 22.0 0.00 0.00 0.00 26 1007.7
20260505232004 78 286 10.0 21.0 0.00 0.00 0.00 25 1007.7
20260505231003 78 285 12.0 21.0 0.00 0.00 0.00 26 1007.8
20260505230504 78 283 12.0 20.0 0.00 0.00 0.00 25 1007.8
20260505225503 78 280 12.0 20.0 0.00 0.00 0.00 26 1007.8
20260505224503 78 287 12.0 21.0 0.00 0.00 0.00 25 1008.0
20260505224003 78 320 9.0 18.0 0.00 0.00 0.00 26 1008.1
20260505223504 78 282 8.0 14.0 0.00 0.00 0.00 25 1008.1
20260505223003 78 282 9.0 20.0 0.00 0.00 0.00 26 1008.2
20260505222504 78 295 10.0 22.0 0.00 0.00 0.00 26 1008.3
20260505222003 78 298 5.0 17.0 0.00 0.00 0.00 26 1008.3
20260505221503 79 293 6.0 17.0 0.00 0.00 0.00 26 1008.3
20260505221003 79 290 9.0 20.0 0.00 0.00 0.00 26 1008.3
20260505220504 79 290 10.0 16.0 0.00 0.00 0.00 25 1008.6
20260505215004 79 311 8.0 17.0 0.00 0.00 0.00 26 1008.7
20260505214503 79 294 10.0 21.0 0.00 0.00 0.00 25 1008.7
20260505214004 78 299 10.0 22.0 0.00 0.00 0.00 26 1008.8